VLG94 EIDW-LEBL

Flight info

Callsign VLG94
Flight time N/A
Altitude 39000
Route PESIT2J PESIT DCT BAKUR DCT GUBJE DCT GISOK DCT TACQI DCT MANIG DCT KORER UM616 TUPAR DCT CNA DCT SECHE DCT AGN DCT TOU DCT LOMRA DCT ROCAN DCT PUMAL
Aircraft A21N/M-SDE2E3FGHIRWXY/LB1

Departure

Time N/A
Airport Dublin Airport (EIDW)

Arrival

Time 2026-05-07 22:40
Airport Josep Tarradellas Barcelona-El Prat Airport (LEBL)
Time Latitude Longitude Altitude Speed Heading
2026-05-07 20:48 52.32243 -5.71905 28177 ft 440 kts 166°
2026-05-07 20:48 52.29308 -5.70492 28632 ft 438 kts 166°
2026-05-07 20:48 52.26387 -5.69088 29072 ft 437 kts 166°
2026-05-07 20:49 52.23508 -5.67475 29498 ft 437 kts 161°
2026-05-07 20:49 52.20680 -5.65678 29945 ft 436 kts 161°
2026-05-07 20:49 52.17872 -5.63829 30306 ft 435 kts 160°
2026-05-07 20:49 52.15078 -5.61952 30611 ft 434 kts 160°
2026-05-07 20:50 52.12289 -5.60065 30886 ft 434 kts 160°
2026-05-07 20:50 52.09496 -5.58173 31167 ft 434 kts 160°
2026-05-07 20:50 52.06707 -5.56288 31461 ft 434 kts 160°
2026-05-07 20:50 52.03926 -5.54388 31751 ft 434 kts 159°
2026-05-07 20:51 52.01213 -5.52378 32025 ft 434 kts 157°
2026-05-07 20:51 51.98459 -5.50222 32302 ft 434 kts 156°
2026-05-07 20:51 51.95783 -5.48079 32573 ft 434 kts 156°
2026-05-07 20:51 51.93076 -5.45901 32835 ft 433 kts 156°
2026-05-07 20:52 51.90376 -5.43736 33072 ft 433 kts 156°
2026-05-07 20:52 51.87670 -5.41584 33287 ft 433 kts 156°
2026-05-07 20:52 51.84959 -5.39442 33529 ft 433 kts 156°
2026-05-07 20:52 51.82244 -5.37308 33769 ft 433 kts 156°
2026-05-07 20:53 51.79535 -5.35186 33992 ft 433 kts 156°
2026-05-07 20:53 51.76829 -5.33071 34184 ft 432 kts 156°
2026-05-07 20:53 51.74111 -5.30951 34346 ft 433 kts 156°
2026-05-07 20:53 51.71396 -5.28835 34484 ft 434 kts 156°
2026-05-07 20:54 51.68674 -5.26717 34617 ft 434 kts 156°
2026-05-07 20:54 51.63243 -5.22499 34835 ft 437 kts 156°
2026-05-07 20:54 51.60494 -5.20367 34979 ft 437 kts 156°
2026-05-07 20:55 51.57742 -5.18235 35024 ft 439 kts 156°
2026-05-07 20:55 51.52256 -5.13927 35028 ft 439 kts 153°
2026-05-07 20:56 51.47271 -5.08225 35027 ft 442 kts 142°
2026-05-07 20:56 51.42597 -5.01767 35025 ft 444 kts 141°
2026-05-07 20:57 51.38011 -4.95220 35027 ft 444 kts 140°
2026-05-07 20:57 51.33390 -4.88652 35027 ft 444 kts 141°
2026-05-07 20:58 51.28754 -4.82125 35023 ft 444 kts 141°
2026-05-07 20:58 51.24106 -4.75622 35017 ft 444 kts 141°
2026-05-07 20:59 51.19456 -4.69134 35022 ft 444 kts 141°
2026-05-07 20:59 51.14792 -4.62648 35029 ft 444 kts 141°
2026-05-07 21:00 51.10133 -4.56182 35031 ft 444 kts 141°
2026-05-07 21:00 51.05485 -4.49777 35022 ft 444 kts 144°
2026-05-07 21:01 51.00437 -4.44188 35031 ft 441 kts 149°
2026-05-07 21:01 50.95247 -4.38948 35021 ft 441 kts 150°
2026-05-07 21:02 50.90037 -4.33796 35023 ft 441 kts 150°
2026-05-07 21:02 50.84830 -4.28650 35029 ft 441 kts 150°
2026-05-07 21:03 50.79623 -4.23498 35019 ft 441 kts 150°
2026-05-07 21:03 50.74418 -4.18351 35025 ft 440 kts 150°
2026-05-07 21:04 50.69256 -4.13260 35028 ft 440 kts 150°
2026-05-07 21:04 50.64058 -4.08149 35289 ft 440 kts 150°
2026-05-07 21:04 50.61452 -4.05592 35423 ft 440 kts 150°
2026-05-07 21:05 50.58839 -4.03032 35552 ft 441 kts 150°
2026-05-07 21:05 50.56232 -4.00480 35655 ft 441 kts 151°
2026-05-07 21:05 50.53651 -3.97958 35751 ft 442 kts 151°
2026-05-07 21:05 50.51038 -3.95408 35869 ft 443 kts 151°
2026-05-07 21:06 50.48417 -3.92853 35991 ft 443 kts 151°
2026-05-07 21:06 50.43164 -3.87742 36033 ft 444 kts 151°
2026-05-07 21:07 50.37905 -3.82639 36036 ft 444 kts 151°
2026-05-07 21:07 50.32681 -3.77582 36022 ft 444 kts 151°
2026-05-07 21:08 50.27418 -3.72503 36029 ft 444 kts 151°
2026-05-07 21:08 50.22152 -3.67433 36017 ft 444 kts 151°
2026-05-07 21:09 50.16886 -3.62376 36015 ft 443 kts 151°
2026-05-07 21:09 50.11631 -3.57343 36016 ft 443 kts 151°
2026-05-07 21:10 50.06406 -3.52352 36015 ft 443 kts 151°
2026-05-07 21:10 50.01139 -3.47335 36017 ft 444 kts 151°
2026-05-07 21:11 49.95879 -3.42336 36015 ft 444 kts 151°
2026-05-07 21:11 49.87969 -3.34844 36011 ft 444 kts 151°
2026-05-07 21:12 49.82685 -3.29856 36012 ft 444 kts 151°
2026-05-07 21:12 49.77171 -3.25666 36014 ft 439 kts 165°
2026-05-07 21:13 49.71295 -3.23107 36012 ft 438 kts 168°
2026-05-07 21:13 49.65373 -3.20899 36012 ft 439 kts 169°
2026-05-07 21:14 49.59460 -3.18748 36011 ft 439 kts 169°
2026-05-07 21:14 49.53514 -3.16555 36013 ft 439 kts 169°
2026-05-07 21:15 49.47567 -3.14344 36002 ft 439 kts 169°
2026-05-07 21:15 49.41621 -3.12131 36008 ft 439 kts 169°
2026-05-07 21:16 49.35680 -3.09926 36013 ft 439 kts 169°
2026-05-07 21:16 49.29726 -3.07723 36013 ft 439 kts 169°
2026-05-07 21:17 49.23813 -3.05541 36012 ft 440 kts 169°
2026-05-07 21:17 49.17861 -3.03351 36012 ft 440 kts 169°
2026-05-07 21:18 49.11910 -3.01166 36016 ft 440 kts 169°
2026-05-07 21:18 49.05955 -2.98985 36016 ft 440 kts 169°
2026-05-07 21:19 49.00000 -2.96809 36014 ft 441 kts 169°
2026-05-07 21:19 48.94027 -2.94633 36014 ft 441 kts 169°
2026-05-07 21:20 48.88051 -2.92460 36004 ft 441 kts 169°
2026-05-07 21:20 48.82078 -2.90294 36010 ft 441 kts 169°
2026-05-07 21:21 48.76143 -2.88146 36010 ft 441 kts 169°
2026-05-07 21:21 48.70191 -2.85998 36017 ft 441 kts 169°
2026-05-07 21:22 48.64220 -2.83849 36021 ft 441 kts 169°
2026-05-07 21:22 48.58243 -2.81702 36019 ft 442 kts 169°
2026-05-07 21:23 48.52253 -2.79557 36006 ft 443 kts 169°
2026-05-07 21:23 48.46254 -2.77412 36012 ft 443 kts 169°
2026-05-07 21:24 48.40258 -2.75274 35996 ft 443 kts 169°
2026-05-07 21:24 48.34246 -2.73136 36005 ft 444 kts 169°
2026-05-07 21:25 48.28253 -2.71010 36005 ft 445 kts 169°
2026-05-07 21:25 48.22224 -2.68876 36000 ft 445 kts 169°
2026-05-07 21:26 48.16197 -2.66748 36000 ft 445 kts 169°
2026-05-07 21:26 48.10152 -2.64619 36002 ft 446 kts 169°
2026-05-07 21:27 48.04100 -2.62492 36002 ft 446 kts 170°
2026-05-07 21:27 47.98094 -2.60386 35985 ft 447 kts 170°
2026-05-07 21:28 47.95056 -2.59324 35782 ft 449 kts 170°
2026-05-07 21:28 47.91988 -2.58253 35780 ft 452 kts 170°
2026-05-07 21:28 47.88927 -2.57185 35918 ft 452 kts 170°
2026-05-07 21:28 47.85863 -2.56116 35993 ft 451 kts 170°
2026-05-07 21:29 47.79779 -2.53995 35995 ft 448 kts 170°
2026-05-07 21:29 47.74731 -2.52238 35990 ft 448 kts 168°
2026-05-07 21:30 47.68067 -2.47959 35994 ft 454 kts 147°
2026-05-07 21:30 47.64112 -2.42691 35994 ft 458 kts 135°
2026-05-07 21:31 47.59977 -2.35772 35991 ft 460 kts 133°
2026-05-07 21:31 47.55833 -2.28523 35986 ft 461 kts 133°
2026-05-07 21:32 47.51668 -2.21312 35993 ft 461 kts 133°
2026-05-07 21:32 47.47462 -2.14135 35989 ft 461 kts 133°
2026-05-07 21:33 47.43241 -2.06983 35991 ft 461 kts 133°
2026-05-07 21:33 47.39036 -1.99881 35993 ft 458 kts 133°
2026-05-07 21:34 47.34864 -1.92849 35991 ft 458 kts 133°
2026-05-07 21:34 47.30665 -1.85770 35990 ft 458 kts 133°
2026-05-07 21:35 47.26464 -1.78696 35991 ft 458 kts 133°
2026-05-07 21:35 47.22105 -1.71376 35993 ft 458 kts 134°
2026-05-07 21:36 47.17896 -1.64327 35990 ft 458 kts 134°
2026-05-07 21:36 47.13396 -1.57768 35993 ft 454 kts 140°
2026-05-07 21:37 47.08745 -1.51577 35982 ft 454 kts 141°
2026-05-07 21:37 47.04021 -1.45404 35985 ft 454 kts 141°
2026-05-07 21:38 46.99300 -1.39249 35987 ft 454 kts 141°
2026-05-07 21:38 46.94580 -1.33088 35987 ft 454 kts 141°
2026-05-07 21:39 46.89890 -1.26961 35991 ft 455 kts 141°
2026-05-07 21:39 46.85167 -1.20803 35989 ft 454 kts 141°
2026-05-07 21:40 46.80458 -1.14677 35991 ft 452 kts 141°
2026-05-07 21:40 46.75753 -1.08576 35990 ft 452 kts 141°
2026-05-07 21:41 46.71050 -1.02493 35988 ft 452 kts 141°
2026-05-07 21:41 46.66368 -0.96451 35987 ft 452 kts 141°
2026-05-07 21:42 46.61655 -0.90384 35987 ft 452 kts 141°
2026-05-07 21:42 46.56949 -0.84333 35987 ft 452 kts 141°
2026-05-07 21:43 46.52272 -0.78307 35982 ft 450 kts 141°
2026-05-07 21:43 46.47594 -0.72283 35982 ft 447 kts 141°
2026-05-07 21:44 46.42667 -0.66870 35982 ft 441 kts 154°
2026-05-07 21:44 46.37032 -0.63474 35978 ft 437 kts 163°
2026-05-07 21:45 46.31245 -0.60758 35974 ft 437 kts 165°
2026-05-07 21:45 46.25470 -0.58177 35973 ft 437 kts 165°
2026-05-07 21:46 46.19659 -0.55555 35971 ft 437 kts 165°
2026-05-07 21:46 46.13853 -0.52905 35968 ft 437 kts 165°
2026-05-07 21:47 46.08056 -0.50252 35965 ft 437 kts 165°
2026-05-07 21:47 46.02253 -0.47601 35965 ft 437 kts 165°
2026-05-07 21:48 45.96451 -0.44958 35953 ft 437 kts 165°
2026-05-07 21:48 45.90647 -0.42321 35965 ft 438 kts 165°
2026-05-07 21:49 45.84865 -0.39700 35966 ft 438 kts 165°
2026-05-07 21:49 45.79053 -0.37071 35966 ft 438 kts 165°
2026-05-07 21:50 45.73242 -0.34448 35969 ft 438 kts 165°
2026-05-07 21:50 45.67429 -0.31806 35964 ft 439 kts 162°
2026-05-07 21:51 45.61802 -0.28311 35966 ft 441 kts 158°
2026-05-07 21:51 45.56262 -0.24518 35970 ft 442 kts 157°
2026-05-07 21:52 45.50749 -0.20681 35970 ft 444 kts 157°
2026-05-07 21:52 45.45196 -0.16833 35971 ft 444 kts 157°
2026-05-07 21:53 45.39637 -0.13007 35960 ft 444 kts 157°
2026-05-07 21:53 45.34063 -0.09185 35961 ft 444 kts 157°
2026-05-07 21:54 45.28493 -0.05375 35963 ft 445 kts 157°
2026-05-07 21:54 45.22947 -0.01589 35958 ft 445 kts 157°
2026-05-07 21:55 45.17379 0.02203 35958 ft 443 kts 157°
2026-05-07 21:55 45.11827 0.05978 35964 ft 442 kts 157°
2026-05-07 21:56 45.06269 0.09747 35965 ft 442 kts 157°
2026-05-07 21:56 45.00751 0.13482 35970 ft 442 kts 157°
2026-05-07 21:57 44.95192 0.17236 35961 ft 443 kts 157°
2026-05-07 21:57 44.89624 0.20988 35962 ft 443 kts 157°
2026-05-07 21:58 44.84052 0.24735 35963 ft 443 kts 157°
2026-05-07 21:58 44.78479 0.28474 35966 ft 443 kts 157°
2026-05-07 21:59 44.72936 0.32185 35967 ft 443 kts 157°
2026-05-07 21:59 44.67368 0.35905 35964 ft 443 kts 157°
2026-05-07 22:00 44.61799 0.39617 35964 ft 442 kts 158°
2026-05-07 22:00 44.56227 0.43324 35964 ft 442 kts 158°
2026-05-07 22:01 44.50669 0.47014 35962 ft 442 kts 158°
2026-05-07 22:01 44.45132 0.50682 35963 ft 442 kts 158°
2026-05-07 22:02 44.39552 0.54356 35961 ft 442 kts 158°
2026-05-07 22:02 44.33959 0.58013 35963 ft 444 kts 158°
2026-05-07 22:03 44.28399 0.61640 35965 ft 444 kts 158°
2026-05-07 22:03 44.22795 0.65291 35967 ft 444 kts 158°
2026-05-07 22:04 44.17188 0.68938 35966 ft 444 kts 158°
2026-05-07 22:04 44.11609 0.72559 35967 ft 444 kts 158°
2026-05-07 22:05 44.05997 0.76194 35963 ft 445 kts 158°
2026-05-07 22:05 44.00395 0.79815 35960 ft 442 kts 159°
2026-05-07 22:06 43.94819 0.83412 35973 ft 441 kts 159°
2026-05-07 22:06 43.89559 0.87873 35964 ft 448 kts 143°
2026-05-07 22:07 43.85424 0.94336 35962 ft 455 kts 129°
2026-05-07 22:07 43.81879 1.01646 35967 ft 457 kts 126°
2026-05-07 22:08 43.78452 1.09056 35968 ft 457 kts 126°
2026-05-07 22:08 43.75013 1.16417 35965 ft 456 kts 127°
2026-05-07 22:09 43.71546 1.23735 35963 ft 453 kts 127°
2026-05-07 22:09 43.68009 1.30950 35965 ft 450 kts 132°
2026-05-07 22:10 43.63679 1.37054 35968 ft 441 kts 147°
2026-05-07 22:10 43.58328 1.40888 35972 ft 430 kts 167°
2026-05-07 22:11 43.52578 1.42919 35973 ft 429 kts 170°
2026-05-07 22:11 43.46759 1.44807 35969 ft 430 kts 170°
2026-05-07 22:12 43.40936 1.46710 35962 ft 430 kts 170°
2026-05-07 22:12 43.35113 1.48617 35975 ft 430 kts 170°
2026-05-07 22:13 43.29319 1.50514 35977 ft 430 kts 170°
2026-05-07 22:13 43.23539 1.52675 35911 ft 432 kts 167°
2026-05-07 22:14 43.20645 1.53883 35215 ft 435 kts 167°
2026-05-07 22:14 43.17784 1.55091 34585 ft 433 kts 167°
2026-05-07 22:14 43.14924 1.56305 34153 ft 427 kts 167°
2026-05-07 22:14 43.12104 1.57501 33568 ft 422 kts 167°
2026-05-07 22:15 43.09298 1.58689 32785 ft 422 kts 167°
2026-05-07 22:15 43.06524 1.59860 31885 ft 425 kts 167°
2026-05-07 22:15 43.03685 1.61057 30923 ft 429 kts 167°
2026-05-07 22:15 43.00821 1.62264 30049 ft 431 kts 167°
2026-05-07 22:16 42.97949 1.63476 29130 ft 431 kts 167°
2026-05-07 22:16 42.95090 1.64680 28339 ft 428 kts 167°
2026-05-07 22:16 42.92252 1.65875 27527 ft 426 kts 166°
2026-05-07 22:16 42.89412 1.67068 26680 ft 426 kts 166°
2026-05-07 22:17 42.86580 1.68257 25814 ft 426 kts 166°
2026-05-07 22:17 42.83736 1.69450 24934 ft 429 kts 165°
2026-05-07 22:17 42.80876 1.70647 24038 ft 432 kts 165°
2026-05-07 22:17 42.78017 1.71844 23688 ft 442 kts 165°
2026-05-07 22:18 42.75012 1.73098 23420 ft 459 kts 165°
2026-05-07 22:18 42.68875 1.75664 22863 ft 460 kts 165°
2026-05-07 22:18 42.65822 1.76940 22600 ft 459 kts 165°
2026-05-07 22:19 42.62777 1.78210 21989 ft 454 kts 165°
2026-05-07 22:19 42.60740 1.79058 21318 ft 453 kts 164°
2026-05-07 22:19 42.57733 1.80309 20462 ft 450 kts 164°
2026-05-07 22:19 42.54756 1.81545 20137 ft 448 kts 164°
2026-05-07 22:20 42.51771 1.82784 19888 ft 448 kts 164°
2026-05-07 22:20 42.48784 1.84021 19642 ft 448 kts 164°
2026-05-07 22:20 42.45805 1.85256 19397 ft 447 kts 164°
2026-05-07 22:20 42.42870 1.86471 19159 ft 446 kts 164°
2026-05-07 22:21 42.39904 1.87697 18930 ft 445 kts 164°
2026-05-07 22:21 42.36949 1.88917 18699 ft 443 kts 163°
2026-05-07 22:21 42.33992 1.90137 18459 ft 442 kts 163°
2026-05-07 22:21 42.31049 1.91350 18204 ft 440 kts 163°
2026-05-07 22:22 42.28116 1.92558 17936 ft 439 kts 163°
2026-05-07 22:22 42.25204 1.93756 17666 ft 437 kts 163°
2026-05-07 22:22 42.22330 1.94938 17391 ft 435 kts 163°
2026-05-07 22:22 42.19439 1.96125 17129 ft 434 kts 163°
2026-05-07 22:23 42.16553 1.97308 16876 ft 432 kts 163°
2026-05-07 22:23 42.13683 1.98484 16616 ft 430 kts 163°
2026-05-07 22:23 42.10827 1.99653 16356 ft 428 kts 163°
2026-05-07 22:23 42.07986 2.00816 16016 ft 422 kts 163°
2026-05-07 22:24 42.05198 2.01955 15351 ft 416 kts 163°
2026-05-07 22:24 42.02435 2.03084 14629 ft 412 kts 162°
2026-05-07 22:24 41.99697 2.04200 13933 ft 409 kts 163°
2026-05-07 22:24 41.96981 2.05308 13199 ft 405 kts 162°
2026-05-07 22:25 41.94300 2.06400 12502 ft 400 kts 162°
2026-05-07 22:25 41.91690 2.07462 11976 ft 391 kts 162°
2026-05-07 22:25 41.89155 2.08492 11891 ft 369 kts 162°
2026-05-07 22:25 41.86762 2.09463 11802 ft 349 kts 162°
2026-05-07 22:26 41.84503 2.10380 11709 ft 331 kts 162°
2026-05-07 22:26 41.82346 2.11254 11518 ft 318 kts 162°
2026-05-07 22:26 41.80252 2.12104 11160 ft 311 kts 162°
2026-05-07 22:26 41.78199 2.12936 10783 ft 305 kts 162°
2026-05-07 22:27 41.76187 2.13751 10420 ft 300 kts 162°
2026-05-07 22:27 41.74230 2.14543 10053 ft 295 kts 162°
2026-05-07 22:27 41.72283 2.15330 9679 ft 290 kts 162°
2026-05-07 22:27 41.70364 2.16105 9285 ft 286 kts 162°
2026-05-07 22:28 41.68430 2.16681 8970 ft 284 kts 175°
2026-05-07 22:28 41.66468 2.16457 8688 ft 284 kts 192°
2026-05-07 22:28 41.64557 2.15800 8408 ft 284 kts 195°
2026-05-07 22:28 41.62655 2.15064 8131 ft 283 kts 195°
2026-05-07 22:29 41.60823 2.14351 7880 ft 282 kts 195°
2026-05-07 22:29 41.58950 2.13628 7637 ft 281 kts 195°
2026-05-07 22:29 41.57074 2.12910 7388 ft 280 kts 195°
2026-05-07 22:29 41.55193 2.12194 7141 ft 279 kts 195°
2026-05-07 22:30 41.53348 2.11493 6901 ft 279 kts 195°
2026-05-07 22:30 41.51547 2.10498 6661 ft 279 kts 209°
2026-05-07 22:30 41.49913 2.09103 6415 ft 278 kts 213°
2026-05-07 22:30 41.48327 2.07626 6154 ft 278 kts 214°
2026-05-07 22:31 41.46752 2.06145 5906 ft 276 kts 214°
2026-05-07 22:31 41.45207 2.04697 5666 ft 275 kts 214°
2026-05-07 22:31 41.43639 2.03233 5406 ft 273 kts 214°
2026-05-07 22:31 41.42092 2.01792 5155 ft 272 kts 214°
2026-05-07 22:32 41.40528 2.00339 4917 ft 270 kts 214°
2026-05-07 22:32 41.38993 1.98915 4784 ft 269 kts 214°
2026-05-07 22:32 41.37459 1.97493 4658 ft 269 kts 214°
2026-05-07 22:32 41.35917 1.96066 4527 ft 268 kts 214°
2026-05-07 22:33 41.34380 1.94644 4394 ft 268 kts 214°
2026-05-07 22:33 41.32895 1.93270 4276 ft 268 kts 212°
2026-05-07 22:33 41.31363 1.91858 4145 ft 268 kts 213°
2026-05-07 22:33 41.29835 1.90447 4023 ft 267 kts 213°
2026-05-07 22:34 41.28313 1.89041 3874 ft 266 kts 213°
2026-05-07 22:34 41.26816 1.87660 3753 ft 257 kts 213°
2026-05-07 22:34 41.25376 1.86329 3468 ft 249 kts 213°
2026-05-07 22:34 41.23964 1.85030 3091 ft 249 kts 212°
2026-05-07 22:35 41.22483 1.84166 2984 ft 227 kts 184°
2026-05-07 22:35 41.21041 1.84640 2988 ft 212 kts 141°
2026-05-07 22:35 41.20264 1.86235 3000 ft 210 kts 100°
2026-05-07 22:35 41.20495 1.88114 2989 ft 212 kts 59°
2026-05-07 22:36 41.21628 1.89336 2995 ft 216 kts 18°
2026-05-07 22:36 41.23135 1.89591 2970 ft 220 kts 14°
2026-05-07 22:36 41.24372 1.90636 2759 ft 209 kts 56°
2026-05-07 22:36 41.24829 1.92342 2466 ft 196 kts 78°
2026-05-07 22:37 41.25121 1.94066 2182 ft 182 kts 75°
2026-05-07 22:37 41.25514 1.95592 1937 ft 167 kts 68°
2026-05-07 22:37 41.25975 1.96955 1737 ft 159 kts 65°
2026-05-07 22:37 41.26431 1.98270 1540 ft 151 kts 66°
2026-05-07 22:38 41.26846 1.99491 1329 ft 140 kts 66°
2026-05-07 22:38 41.27243 2.00654 1135 ft 139 kts 67°
2026-05-07 22:38 41.27642 2.01821 955 ft 139 kts 66°
2026-05-07 22:38 41.28043 2.02991 759 ft 139 kts 66°
2026-05-07 22:39 41.28436 2.04138 581 ft 138 kts 65°
2026-05-07 22:39 41.28838 2.05310 390 ft 139 kts 65°
2026-05-07 22:39 41.29235 2.06471 218 ft 137 kts 64°
2026-05-07 22:39 41.29626 2.07612 32 ft 136 kts 64°
2026-05-07 22:40 41.29982 2.08587 27 ft 93 kts 67°
2026-05-07 22:40 41.30174 2.09206 21 ft 51 kts 64°
2026-05-07 22:40 41.30301 2.09436 20 ft 25 kts 43°
2026-05-07 22:40 41.30421 2.09536 23 ft 14 kts
2026-05-07 22:41 41.30493 2.09486 21 ft 9 kts 299°
2026-05-07 22:41 41.30491 2.09412 22 ft 9 kts 250°
2026-05-07 22:41 41.30458 2.09309 22 ft 15 kts 246°
2026-05-07 22:41 41.30410 2.09164 24 ft 20 kts 246°
2026-05-07 22:42 41.30346 2.08975 21 ft 25 kts 244°
2026-05-07 22:42 41.30274 2.08788 22 ft 22 kts 250°
2026-05-07 22:42 41.30216 2.08596 23 ft 25 kts 243°
2026-05-07 22:42 41.30088 2.08507 22 ft 22 kts 170°
2026-05-07 22:43 41.29981 2.08449 28 ft 16 kts 218°
2026-05-07 22:43 41.29886 2.08352 27 ft 19 kts 213°
2026-05-07 22:43 41.29760 2.08239 21 ft 25 kts 215°
2026-05-07 22:43 41.29616 2.08222 20 ft 20 kts 150°
2026-05-07 22:44 41.29484 2.08308 21 ft 23 kts 155°
2026-05-07 22:44 41.29369 2.08307 22 ft 17 kts 232°
2026-05-07 22:44 41.29285 2.08211 22 ft 17 kts 186°
2026-05-07 22:44 41.29242 2.08207 22 ft 0 kts 182°
2026-05-07 22:46 41.29231 2.08157 24 ft 0 kts 183°